Starlink 11630

operational
NORAD ID: 63111 Int'l Des: 2025-039 Owner: SPXS Country: US Constellation: starlink
LEOCIRCULAR

Starlink 11630について

説明を読み込み中...

リアルタイム位置

3D地球を読み込み中...

次回通過

高度履歴

Altitude vs Time

uPlot chart will show altitude changes over time

軌道要素

1 63111U 25039H 26034.49099387 .00281018 00000-0 21151-2 0 9997
2 63111 42.9992 83.2736 0001306 294.0416 66.0315 15.70898138 54239
Epoch: Feb 3, 2026 • Age: 9 hours

現在のステータス

高度 368.0 km
速度 7.69 km/s
衛星直下点 -42.64°S, 80.96°W
打ち上げ日 Feb 27, 2025
運用期間 0.9 years
タイプ internet

技術仕様

分類 Payload
質量 960.00 kg
乾燥質量 910.00 kg
総質量 960.00 kg
長さ 0.30 m
直径 4.10 m
スパン 29.00 m
形状 Box + pan
製造者 SPXS
バスタイプ Starlink V2MD
フェーズステータス In Orbit
所有者/国 SPXS/US

大規模コンステレーション

Loading constellations...